Location: Newark
(27.9881°N, 86.9253°E)
Time: 14:44:56
(UTC+00:00)

Envisat - Visible Passes

Search period start: 18 September 2020 00:00
Search period end: 28 September 2020 00:00
Orbit: 764 x 766 km, 98.1° (Epoch: 18 September)

Date Brightness Start Highest point End Pass type
(mag) Time Alt. Az. Time Alt. Az. Time Alt. Az.
18 Sep 6.2 23:00:08 10° ENE 23:02:34 13° E 23:05:00 10° ESE visible
20 Sep 6.2 12:48:33 10° SW 12:51:26 15° W 12:54:20 10° WNW visible
20 Sep 5.5 23:23:56 10° NE 23:28:09 26° E 23:32:21 10° SSE visible
23 Sep 6.0 12:36:20 10° SW 12:40:01 20° W 12:43:43 10° NW visible
23 Sep 5.9 23:13:04 10° NE 23:16:45 20° E 23:20:24 10° SE visible
26 Sep 5.6 12:24:23 10° SSW 12:28:36 26° W 12:32:51 10° NW visible
26 Sep 6.2 23:02:28 10° ENE 23:05:19 15° E 23:08:09 10° SE visible
